Warrensburg, MO

1:57 PM CDT on July 20, 2017 (GMT -0500)
Skyhaven

Weather History for KRCM - January, 2012

Change the Weather History Date:

Saturday, January 14, 2012

  Actual Average (KSZL) Record (KSZL)
Temperature  
Mean Temperature 34 °F -  
Max Temperature 41 °F 36 °F 60 °F (2016)
Min Temperature 26 °F 20 °F 3 °F (1997)
Degree Days  
Heating Degree Days 32    
Moisture  
Dew Point 19 °F    
Average Humidity 58    
Maximum Humidity 69    
Minimum Humidity 48    
Precipitation  
Precipitation 0.00 in - - ()
Sea Level Pressure  
Sea Level Pressure 30.05 in    
Wind  
Wind Speed 10 mph (West)    
Max Wind Speed 22 mph    
Max Gust Speed 30 mph    
Visibility 10 miles    
Events      
Averages and records for this station are not official NWS values.
T = Trace of Precipitation, MM = Missing Value Source: NWS Daily Summary

Daily Weather History Graph

Daily Weather History Graph

Search for Another Location

Airport or City:

Trip Planner

Search our weather history database for the weather conditions in past years. The results will help you decide how hot, cold, wet, or windy it might be!

Date:

Astronomy

Jan. 14, 2012 Rise Set
Actual Time 7:32 AM CST 5:16 PM CST
Civil Twilight 7:03 AM CST 5:45 PM CST
Nautical Twilight 6:30 AM CST 6:18 PM CST
Astronomical Twilight 5:58 AM CST 6:50 PM CST
Moon 11:33 PM CST (1/14) 10:22 AM CST (1/14)
Length of Visible Light 10h 42m
Length of Day
9h 43m
Waning Gibbous, 68% of the Moon is Illuminated
Jan 14
Waning Gibbous
Jan 16
Last Quarter
Jan 23
New
Jan 30
First Quarter
Feb 7
Full

Hourly Weather History & Observations

Time (CST) Temp. Windchill Dew Point Humidity Pressure Visibility Wind Dir Wind Speed Gust Speed Precip Events Conditions
12:15 AM 26.6 °F 19.1 °F 14.0 °F 59% 30.01 in 10.0 mi SSE 6.9 mph - N/A   Scattered Clouds
12:35 AM 26.6 °F 20.0 °F 14.0 °F 59% 30.00 in 10.0 mi SSE 5.8 mph - N/A   Clear
12:55 AM 28.4 °F 19.1 °F 15.8 °F 59% 29.98 in 10.0 mi South 10.4 mph - N/A   Scattered Clouds
1:15 AM 28.4 °F 20.4 °F 14.0 °F 55% 29.97 in 10.0 mi South 8.1 mph - N/A   Clear
1:35 AM 28.4 °F 19.7 °F 14.0 °F 55% 29.97 in 10.0 mi South 9.2 mph - N/A   Scattered Clouds
1:55 AM 28.4 °F 19.7 °F 14.0 °F 55% 29.96 in 10.0 mi SSE 9.2 mph - N/A   Scattered Clouds
2:15 AM 28.4 °F 19.7 °F 15.8 °F 59% 29.95 in 10.0 mi SSE 9.2 mph - N/A   Mostly Cloudy
2:35 AM 30.2 °F 20.8 °F 15.8 °F 55% 29.94 in 10.0 mi South 11.5 mph - N/A   Overcast
2:55 AM 30.2 °F 25.4 °F 15.8 °F 55% 29.94 in 10.0 mi SSE 4.6 mph - N/A   Mostly Cloudy
3:15 AM 30.2 °F 21.3 °F 17.6 °F 60% 29.90 in 10.0 mi SSE 10.4 mph - N/A   Mostly Cloudy
3:35 AM 30.2 °F 21.3 °F 17.6 °F 60% 29.89 in 10.0 mi SSE 10.4 mph - N/A   Scattered Clouds
4:15 AM 30.2 °F 20.8 °F 17.6 °F 60% 29.88 in 10.0 mi South 11.5 mph - N/A   Clear
4:35 AM 30.2 °F 21.3 °F 17.6 °F 60% 29.88 in 10.0 mi South 10.4 mph - N/A   Clear
4:55 AM 30.2 °F 20.8 °F 17.6 °F 60% 29.88 in 10.0 mi SSW 11.5 mph - N/A   Clear
5:15 AM 28.4 °F 20.4 °F 19.4 °F 69% 29.88 in 10.0 mi SSW 8.1 mph - N/A   Clear
5:35 AM 30.2 °F 21.3 °F 19.4 °F 64% 29.88 in 10.0 mi SSW 10.4 mph - N/A   Clear
5:55 AM 30.2 °F 20.8 °F 19.4 °F 64% 29.88 in 10.0 mi SW 11.5 mph - N/A   Clear
6:15 AM 30.2 °F 21.3 °F 19.4 °F 64% 29.89 in 10.0 mi SW 10.4 mph - N/A   Clear
6:35 AM 30.2 °F 22.6 °F 19.4 °F 64% 29.90 in 10.0 mi SW 8.1 mph - N/A   Clear
6:55 AM 28.4 °F 19.7 °F 19.4 °F 69% 29.91 in 10.0 mi SW 9.2 mph - N/A   Clear
7:15 AM 30.2 °F 22.6 °F 21.2 °F 69% 29.93 in 10.0 mi West 8.1 mph - N/A   Clear
7:35 AM 32.0 °F 22.1 °F 21.2 °F 64% 29.95 in 10.0 mi WNW 13.8 mph 19.6 mph N/A   Clear
7:55 AM 32.0 °F 20.5 °F 21.2 °F 64% 29.96 in 10.0 mi WNW 18.4 mph 24.2 mph N/A   Clear
8:15 AM 32.0 °F 21.6 °F 21.2 °F 64% 29.98 in 10.0 mi WNW 15.0 mph 21.9 mph N/A   Clear
8:35 AM 32.0 °F 19.8 °F 21.2 °F 64% 30.00 in 10.0 mi WNW 20.7 mph 26.5 mph N/A   Clear
8:55 AM 32.0 °F 20.1 °F 19.4 °F 60% 30.02 in 10.0 mi WNW 19.6 mph 25.3 mph N/A   Clear
9:15 AM 33.8 °F 23.5 °F 19.4 °F 56% 30.05 in 10.0 mi WNW 16.1 mph 26.5 mph N/A   Clear
9:35 AM 33.8 °F 21.9 °F 19.4 °F 56% 30.06 in 10.0 mi WNW 21.9 mph 29.9 mph N/A   Mostly Cloudy
9:55 AM 32.0 °F 20.1 °F 19.4 °F 60% 30.08 in 10.0 mi NW 19.6 mph 27.6 mph N/A   Mostly Cloudy
10:15 AM 32.0 °F 22.5 °F 19.4 °F 60% 30.10 in 10.0 mi NW 12.7 mph 24.2 mph N/A   Scattered Clouds
10:35 AM 32.0 °F 21.2 °F 17.6 °F 55% 30.13 in 10.0 mi NW 16.1 mph 23.0 mph N/A   Clear
10:55 AM 32.0 °F 21.6 °F 19.4 °F 60% 30.13 in 10.0 mi NW 15.0 mph 21.9 mph N/A   Clear
11:15 AM 32.0 °F 20.8 °F 19.4 °F 60% 30.14 in 10.0 mi WNW 17.3 mph 20.7 mph N/A   Clear
11:35 AM 33.8 °F 23.5 °F 19.4 °F 56% 30.15 in 10.0 mi WNW 16.1 mph 24.2 mph N/A   Clear
11:55 AM 35.6 °F 25.9 °F 19.4 °F 52% 30.16 in 10.0 mi West 16.1 mph 21.9 mph N/A   Scattered Clouds
12:15 PM 35.6 °F 27.5 °F 19.4 °F 52% 30.16 in 10.0 mi NW 11.5 mph 18.4 mph N/A   Scattered Clouds
12:35 PM 35.6 °F 27.1 °F 19.4 °F 52% 30.16 in 10.0 mi WNW 12.7 mph 19.6 mph N/A   Clear
12:55 PM 37.4 °F 30.3 °F 19.4 °F 48% 30.16 in 10.0 mi NW 10.4 mph - N/A   Clear
1:15 PM 37.4 °F 30.3 °F 21.2 °F 52% 30.16 in 10.0 mi NNW 10.4 mph - N/A   Clear
1:35 PM 37.4 °F 29.3 °F 21.2 °F 52% 30.16 in 10.0 mi NW 12.7 mph 16.1 mph N/A   Clear
1:55 PM 37.4 °F 29.3 °F 21.2 °F 52% 30.17 in 10.0 mi WNW 12.7 mph 17.3 mph N/A   Clear
2:15 PM 37.4 °F 29.3 °F 21.2 °F 52% 30.17 in 10.0 mi West 12.7 mph 16.1 mph N/A   Clear
2:35 PM 39.2 °F 33.0 °F 21.2 °F 49% 30.17 in 10.0 mi WNW 9.2 mph - N/A   Clear
2:55 PM 39.2 °F 34.2 °F 21.2 °F 49% 30.17 in 10.0 mi West 6.9 mph - N/A   Scattered Clouds
3:15 PM 41.0 °F 35.2 °F 23.0 °F 49% 30.18 in 10.0 mi West 9.2 mph - N/A   Clear
3:35 PM 39.2 °F 34.2 °F 23.0 °F 52% 30.19 in 10.0 mi WNW 6.9 mph - N/A   Scattered Clouds
3:55 PM 41.0 °F 36.4 °F 23.0 °F 49% 30.20 in 10.0 mi WNW 6.9 mph - N/A   Mostly Cloudy
4:15 PM 39.2 °F 33.0 °F 23.0 °F 52% 30.20 in 10.0 mi WNW 9.2 mph - N/A   Scattered Clouds
4:35 PM 39.2 °F 35.0 °F 23.0 °F 52% 30.20 in 10.0 mi WNW 5.8 mph - N/A   Clear
4:55 PM 37.4 °F 34.9 °F 23.0 °F 56% 30.21 in 10.0 mi NW 3.5 mph - N/A   Clear
5:15 PM 35.6 °F 32.8 °F 23.0 °F 60% 30.21 in 10.0 mi WNW 3.5 mph - N/A   Clear
5:35 PM 35.6 °F - 23.0 °F 60% 30.22 in 10.0 mi Calm Calm - N/A   Clear
5:55 PM 35.6 °F - 23.0 °F 60% 30.22 in 10.0 mi Calm Calm - N/A   Clear
6:15 PM 33.8 °F - 23.0 °F 65% 30.23 in 10.0 mi Calm Calm - N/A   Clear
6:35 PM 32.0 °F 27.5 °F 21.2 °F 64% 30.23 in 10.0 mi SSE 4.6 mph - N/A   Clear
6:55 PM 32.0 °F 27.5 °F 21.2 °F 64% 30.23 in 10.0 mi SSE 4.6 mph - N/A   Clear
7:15 PM 32.0 °F 26.4 °F 21.2 °F 64% 30.23 in 10.0 mi SSE 5.8 mph - N/A   Clear
7:55 PM 30.2 °F 24.3 °F 21.2 °F 69% 30.23 in 10.0 mi SSE 5.8 mph - N/A   Clear
8:15 PM 28.4 °F 22.2 °F 21.2 °F 74% 30.23 in 10.0 mi SSE 5.8 mph - N/A   Clear
8:35 PM 28.4 °F 22.2 °F 21.2 °F 74% 30.23 in 10.0 mi SSE 5.8 mph - N/A   Clear
8:55 PM 28.4 °F 22.2 °F 21.2 °F 74% 30.24 in 10.0 mi South 5.8 mph - N/A   Clear
9:15 PM 28.4 °F 22.2 °F 21.2 °F 74% 30.25 in 10.0 mi South 5.8 mph - N/A   Clear
9:35 PM 28.4 °F 22.2 °F 21.2 °F 74% 30.25 in 10.0 mi South 5.8 mph - N/A   Clear
9:55 PM 28.4 °F 22.2 °F 21.2 °F 74% 30.25 in 10.0 mi South 5.8 mph - N/A   Clear
10:15 PM 28.4 °F 22.2 °F 21.2 °F 74% 30.25 in 10.0 mi South 5.8 mph - N/A   Clear
10:35 PM 26.6 °F 20.0 °F 21.2 °F 80% 30.24 in 10.0 mi South 5.8 mph - N/A   Clear
10:55 PM 26.6 °F 19.1 °F 21.2 °F 80% 30.24 in 10.0 mi South 6.9 mph - N/A   Clear
11:35 PM 28.4 °F 22.2 °F 21.2 °F 74% 30.24 in 10.0 mi South 5.8 mph - N/A   Clear